[[{"header":{"parameterUnit":"m.s-1","parameterCategory":1,"la1":30.2991,"la2":30.254,"lo1":-89.0895,"lo2":-89.0444,"dy":0.0017,"dx":0.0017,"nx":28,"ny":28,"refTime":"2023-09-18T03:00:00:Z","depth":0,"parameterNumber":2,"parameterNumberName":"U-component_of_WINDS"},"data":[0,0,0,0,0,0,0,0,0,0,0,0,0,0,0,0,0,0,0,0,0,0,0,0,0,0,0,0,0,0,0,0,0,0,0,0,0,0,0,0,0,0,0,0,0,0,0,0,0,0,0,0,0,0,0,0,0,0,-4.3375,-4.3375,0,-4.3352,-4.3352,-4.3352,-4.3266,-4.3264,-4.3262,-4.326,-4.3238,-4.324,-4.3241,0,0,0,0,0,0,0,0,0,0,0,0,0,-4.3347,-4.3348,-4.3375,-4.3375,-4.3375,-4.3352,-4.3352,-4.3352,-4.3266,-4.3264,-4.3262,-4.3259,-4.3238,-4.3239,-4.3241,0,0,0,0,0,0,0,0,0,0,0,0,0,-4.3345,-4.3348,-4.3375,-4.3329,-4.3325,-4.3353,-4.3352,-4.3352,-4.3267,-4.3264,-4.3261,-4.3258,-4.3237,-4.3239,-4.3241,-4.3312,0,0,-4.3247,-4.3248,0,0,0,0,0,0,0,0,-4.3346,-4.3346,-4.3336,-4.3333,-4.3328,-4.3309,-4.3334,-4.3338,-4.3268,-4.3289,-4.326,-4.3257,-4.3264,-4.3264,-4.3266,-4.3311,-4.331,-4.3247,-4.3248,-4.3249,-4.3249,0,0,0,0,0,0,0,-4.3346,-4.3347,-4.3366,-4.3336,-4.3331,-4.3311,-4.3307,-4.3334,-4.3294,-4.3287,-4.3281,-4.3279,-4.3261,-4.3264,-4.3265,-4.3309,-4.3247,-4.3249,-4.325,-4.325,-4.341,-4.3413,0,0,0,0,0,0,-4.3352,-4.3348,-4.3367,-4.3366,-4.333,-4.3314,-4.331,-4.3318,-4.3293,-4.3286,-4.3282,-4.3275,-4.3263,-4.3263,-4.3264,-4.3343,-4.3249,-4.3251,-4.3252,-4.3407,-4.3411,-4.3414,0,0,0,0,0,0,-4.3352,-4.3355,-4.3368,-4.3355,-4.3355,-4.3317,-4.3327,-4.3319,-4.3322,-4.3289,-4.3281,-4.3292,-4.326,-4.3261,-4.33,-4.3342,-4.3251,-4.3253,-4.3403,-4.3408,-4.3412,-4.3504,0,0,0,0,0,0,-4.3351,-4.3355,-4.3381,-4.3356,-4.3356,-4.3404,-4.333,-4.3321,-4.3325,-4.3317,-4.3297,-4.3291,-4.3258,-4.3298,-4.3302,-4.3343,-4.3255,-4.3399,-4.3405,-4.3411,-4.3497,-4.3512,-4.3524,0,0,0,0,0,-4.3351,-4.3408,-4.3383,-4.3385,-4.3387,-4.3407,-4.3407,-4.3368,-4.3329,-4.3355,-4.3334,-4.3291,-4.3337,-4.3303,-4.3306,-4.3348,-4.3397,-4.3404,-4.3411,-4.3492,-4.3509,-4.3524,0,0,0,0,0,0,-4.3439,-4.3404,-4.3375,-4.3426,-4.342,-4.3392,-4.3423,-4.3388,-4.3392,-4.3384,-4.3336,-4.3333,-4.3378,-4.3368,-4.333,-4.3415,-4.336,-4.3368,-4.342,-4.3436,-4.3449,-4.345,-4.3256,0,0,0,0,0,-4.3465,-4.3483,-4.3451,-4.3499,-4.3498,-4.3462,-4.3469,-4.3439,-4.3431,-4.3428,-4.341,-4.3404,-4.3417,-4.3426,-4.3436,-4.3497,-4.349,-4.3527,-4.3541,-4.3552,-4.3558,-4.3589,-4.3604,-4.3437,-4.3437,-4.3437,0,0,-4.3517,-4.35,-4.3515,-4.3517,-4.3508,-4.3528,-4.346,-4.3484,-4.3498,-4.3432,-4.3467,-4.3454,-4.3444,-4.3494,-4.3515,-4.3486,-4.3604,-4.3561,-4.357,-4.357,-4.3598,-4.3613,-4.3627,-4.3442,-4.3441,-4.344,0,0,-4.3622,-4.3612,-4.365,-4.3644,-4.3632,-4.3608,-4.3617,-4.3595,-4.3584,-4.3618,-4.3568,-4.3586,-4.3609,-4.3604,-4.3605,-4.371,-4.3671,-4.3715,-4.3783,-4.3813,-4.3826,-4.3838,-4.3874,-4.3888,-4.3723,-4.3723,-4.3723,0,-4.3689,-4.3717,-4.3675,-4.3702,-4.3704,-4.3646,-4.3684,-4.368,-4.3673,-4.3676,-4.3644,-4.3672,-4.3662,-4.3709,-4.3735,-4.3738,-4.3747,-4.3716,-4.3828,-4.3839,-4.3849,-4.3883,-4.3897,-4.3728,-4.3728,-4.3727,-4.3727,0,-4.3799,-4.3819,-4.3852,-4.3845,-4.3852,-4.3885,-4.3848,-4.386,-4.3831,-4.3811,-4.3847,-4.3833,-4.3838,-4.3848,-4.382,-4.3892,-4.3874,-4.3836,-4.3779,-4.3871,-4.3902,-4.3915,-4.3736,-4.3734,-4.3732,-4.3731,0,0,-4.3956,-4.3928,-4.394,-4.3936,-4.392,-4.3935,-4.3966,-4.3971,-4.3982,-4.398,-4.4004,-4.4026,-4.3991,-4.3992,-4.3963,-4.399,-4.4073,-4.3948,-4.3948,-4.3971,-4.415,-4.4177,-4.4192,-4.4048,-4.4051,-4.4052,-4.415,0,-4.4055,-4.4105,-4.4069,-4.4125,-4.4143,-4.4088,-4.4115,-4.4108,-4.4091,-4.4104,-4.4085,-4.41,-4.4053,-4.4053,-4.4078,-4.4058,-4.4108,-4.4051,-4.407,-4.4071,-4.4071,-4.4209,-4.4237,-4.433,-4.4162,-4.4164,-4.4166,0,-4.4176,-4.4179,-4.4236,-4.4216,-4.4223,-4.4247,-4.4249,-4.4263,-4.4255,-4.424,-4.4242,-4.4206,-4.4236,-4.4182,-4.4222,-4.4183,-4.419,-4.4181,-4.4184,-4.4182,-4.4122,-4.4209,-4.4358,-4.4372,-4.4185,-4.4183,-4.4182,0,-4.4283,-4.4302,-4.4338,-4.4337,-4.4315,-4.4334,-4.4325,-4.4314,-4.432,-4.4323,-4.4326,-4.4333,-4.4336,-4.4342,-4.431,-4.4274,-4.4353,-4.4297,-4.4341,-4.4342,-4.4358,-4.4357,-4.4509,-4.4367,-4.4366,-4.4366,-4.4366,0,-4.4396,-4.4433,-4.4386,-4.4408,-4.4448,-4.4408,-4.4449,-4.4435,-4.4426,-4.4445,-4.4399,-4.4418,-4.4375,-4.439,-4.4366,-4.4402,-4.4404,-4.4393,-4.4385,-4.4395,-4.4397,-4.4397,-4.4389,-4.437,-4.4369,-4.4368,-4.4368,0,-4.452,-4.4491,-4.4527,-4.4503,-4.4499,-4.4529,-4.4509,-4.4529,-4.4509,-4.4534,-4.4538,-4.4506,-4.4521,-4.4491,-4.4502,-4.4485,-4.4536,-4.4519,-4.4538,-4.4532,-4.4577,-4.4573,-4.4732,-4.4751,-4.46,-4.4601,-4.4602,0,-4.4593,-4.462,-4.46,-4.4609,-4.4603,-4.4619,-4.4624,-4.4587,-4.4594,-4.4588,-4.4608,-4.462,-4.4626,-4.4654,-4.4632,-4.4641,-4.4623,-4.4679,-4.4624,-4.4633,-4.4621,-4.4619,-4.4621,-4.4689,-4.4691,-4.4692,-4.4693,0,-4.4724,-4.4708,-4.4717,-4.4722,-4.473,-4.4732,-4.4731,-4.4741,-4.4701,-4.4712,-4.4727,-4.4733,-4.4744,-4.4756,-4.476,-4.4752,-4.4716,-4.4711,-4.4722,-4.4731,-4.4739,-4.4733,-4.4566,-4.4707,-4.4706,-4.4705,-4.4704,-4.4703,-4.4823,-4.4844,-4.4833,-4.4845,-4.4841,-4.4841,-4.4858,-4.4841,-4.4852,-4.4858,-4.4836,-4.4855,-4.4847,-4.4849,-4.4845,-4.486,-4.4835,-4.4851,-4.4854,-4.4858,-4.4864,-4.474,-4.4861,-4.4861,-4.486,-4.486,-4.486,0,-4.4949,-4.494,-4.4952,-4.4951,-4.4961,-4.4928,-4.4925,-4.4935,-4.4953,-4.4949,-4.4956,-4.4974,-4.4985,-4.4966,-4.4974,-4.499,-4.4974,-4.4993,-4.499,-4.4989,-4.4887,-4.4876,-4.5006,-4.5006,-4.5006,-4.5006,-4.5006,-4.5006,-4.5016,-4.505,-4.5033,-4.5065,-4.5055,-4.5074,-4.5075,-4.5075,-4.5071,-4.5092,-4.5101,-4.5088,-4.5078,-4.5085,-4.5095,-4.5089,-4.5093,-4.5118,-4.5106,-4.5011,-4.4996,-4.4982,-4.4972,-4.512,-4.512,-4.5206,-4.5207,-4.5208]},{"header":{"parameterUnit":"m.s-1","parameterCategory":1,"la1":30.2991,"la2":30.254,"lo1":-89.0895,"lo2":-89.0444,"dy":0.0017,"dx":0.0017,"nx":28,"ny":28,"refTime":"2023-09-18T03:00:00:Z","depth":0,"parameterNumber":3,"parameterNumberName":"V-component_of_WINDS"},"data":[0,0,0,0,0,0,0,0,0,0,0,0,0,0,0,0,0,0,0,0,0,0,0,0,0,0,0,0,0,0,0,0,0,0,0,0,0,0,0,0,0,0,0,0,0,0,0,0,0,0,0,0,0,0,0,0,0,0,0.2354,0.2354,0,0.2319,0.2318,0.2318,0.2319,0.2319,0.2319,0.232,0.2282,0.2281,0.2279,0,0,0,0,0,0,0,0,0,0,0,0,0,0.2421,0.242,0.2354,0.2354,0.2353,0.2319,0.2318,0.2318,0.2318,0.2319,0.232,0.232,0.2282,0.2281,0.2279,0,0,0,0,0,0,0,0,0,0,0,0,0,0.2389,0.2419,0.2354,0.2349,0.2349,0.2319,0.2318,0.2318,0.2318,0.2319,0.232,0.232,0.2283,0.2281,0.2279,0.2251,0,0,0.2272,0.2271,0,0,0,0,0,0,0,0,0.2391,0.2387,0.235,0.235,0.2349,0.2324,0.2328,0.2295,0.2318,0.233,0.232,0.2321,0.2295,0.2292,0.2284,0.2249,0.2248,0.2272,0.2271,0.227,0.2269,0,0,0,0,0,0,0,0.2393,0.2388,0.234,0.235,0.2349,0.2349,0.2345,0.2322,0.2309,0.2329,0.2329,0.2325,0.2295,0.2286,0.2283,0.2247,0.2272,0.227,0.2269,0.2268,0.2189,0.2188,0,0,0,0,0,0,0.2397,0.239,0.2341,0.2339,0.2372,0.2347,0.2343,0.2331,0.2309,0.2307,0.2324,0.2325,0.2289,0.2286,0.2282,0.2248,0.227,0.2268,0.2266,0.219,0.2189,0.2188,0,0,0,0,0,0,0.2398,0.2392,0.2343,0.2365,0.2358,0.2345,0.2332,0.233,0.2321,0.2306,0.2303,0.2317,0.229,0.2285,0.2259,0.2247,0.2267,0.2265,0.2191,0.2189,0.2188,0.2181,0,0,0,0,0,0,0.24,0.2393,0.2382,0.2364,0.2357,0.2321,0.2331,0.2329,0.2318,0.2318,0.2299,0.2296,0.229,0.2262,0.2257,0.2244,0.2263,0.2192,0.219,0.2189,0.2182,0.218,0.2178,0,0,0,0,0,0.2402,0.2381,0.2382,0.2376,0.2344,0.232,0.2316,0.231,0.2317,0.2306,0.2296,0.2297,0.2249,0.226,0.2254,0.224,0.2192,0.2191,0.2189,0.2183,0.218,0.2178,0,0,0,0,0,0,0.2397,0.2379,0.2379,0.2351,0.2338,0.232,0.2307,0.2307,0.229,0.2291,0.2283,0.2279,0.2254,0.2244,0.2256,0.2213,0.2222,0.2219,0.222,0.2217,0.2214,0.2217,0.2261,0,0,0,0,0,0.2393,0.2376,0.236,0.2337,0.233,0.232,0.2309,0.2306,0.2291,0.2285,0.2273,0.2258,0.224,0.2227,0.221,0.2181,0.2177,0.2169,0.2167,0.2165,0.2162,0.2147,0.2143,0.2182,0.2182,0.2182,0,0,0.2384,0.2371,0.2361,0.2336,0.2325,0.2307,0.2315,0.2295,0.2282,0.2281,0.2257,0.2248,0.223,0.2203,0.2191,0.2195,0.2151,0.2163,0.2161,0.2159,0.2145,0.2141,0.2138,0.2181,0.2181,0.2181,0,0,0.2358,0.2347,0.2327,0.2316,0.2299,0.2292,0.2287,0.227,0.2265,0.224,0.2239,0.2223,0.2192,0.218,0.2169,0.214,0.214,0.2135,0.2122,0.2107,0.2104,0.2101,0.2091,0.2088,0.2132,0.2132,0.2132,0,0.2348,0.2322,0.2316,0.2297,0.2286,0.2286,0.2266,0.2255,0.2233,0.2226,0.2231,0.2192,0.218,0.2151,0.2144,0.2135,0.2129,0.2137,0.2105,0.2102,0.21,0.209,0.2086,0.2131,0.2131,0.2132,0.2132,0,0.2311,0.2293,0.2279,0.2258,0.2246,0.2226,0.2218,0.2206,0.2204,0.2197,0.2172,0.2158,0.2138,0.213,0.2127,0.21,0.2103,0.2107,0.2116,0.2096,0.2086,0.2082,0.2131,0.2131,0.2131,0.2131,0,0,0.228,0.2258,0.2253,0.2244,0.2226,0.2212,0.2192,0.2173,0.2163,0.2148,0.2132,0.2106,0.2109,0.2097,0.2093,0.208,0.2059,0.2085,0.2085,0.2081,0.2028,0.2026,0.2021,0.2059,0.2058,0.2057,0.203,0,0.2253,0.2219,0.2214,0.2183,0.2167,0.2167,0.215,0.2137,0.2129,0.2114,0.2106,0.2087,0.2093,0.2086,0.2073,0.2064,0.2048,0.2066,0.2043,0.2042,0.2047,0.2016,0.2013,0.1988,0.2026,0.2025,0.2025,0,0.2216,0.2201,0.2169,0.2154,0.2147,0.2132,0.2114,0.21,0.2085,0.2081,0.2068,0.2066,0.2046,0.2056,0.2028,0.204,0.203,0.2024,0.2023,0.2021,0.2032,0.2013,0.1979,0.1976,0.2019,0.2019,0.202,0,0.2197,0.2169,0.2146,0.2139,0.212,0.211,0.2102,0.2088,0.2077,0.2062,0.2055,0.2037,0.2027,0.2013,0.2006,0.2014,0.1979,0.1988,0.1974,0.1974,0.1966,0.1967,0.1931,0.196,0.196,0.196,0.196,0,0.2167,0.2147,0.2138,0.2124,0.2102,0.2097,0.2076,0.2068,0.2056,0.204,0.2039,0.2024,0.2016,0.2,0.1994,0.1972,0.1967,0.1963,0.1962,0.1963,0.1964,0.1957,0.1958,0.1959,0.196,0.196,0.196,0,0.2142,0.2135,0.211,0.2095,0.2091,0.2076,0.2063,0.205,0.2043,0.2023,0.2018,0.2008,0.1989,0.1981,0.1958,0.1954,0.1928,0.1928,0.1933,0.1933,0.192,0.1921,0.1878,0.1872,0.1905,0.1905,0.1905,0,0.2123,0.2108,0.2092,0.2082,0.2074,0.2057,0.2047,0.2041,0.2029,0.2012,0.2001,0.1982,0.1967,0.1937,0.1927,0.1909,0.1909,0.1895,0.1906,0.1908,0.1909,0.191,0.1908,0.1893,0.1893,0.1892,0.1892,0,0.209,0.2088,0.2073,0.2056,0.2044,0.203,0.2017,0.2009,0.2001,0.1989,0.197,0.1958,0.1935,0.1917,0.1899,0.189,0.1889,0.1889,0.1885,0.1886,0.1889,0.1887,0.1928,0.189,0.189,0.189,0.189,0.189,0.2068,0.2055,0.2042,0.2025,0.2015,0.2003,0.199,0.1982,0.1967,0.1948,0.1945,0.1925,0.1911,0.1887,0.1878,0.1862,0.1865,0.1859,0.1858,0.1856,0.1856,0.1892,0.1858,0.1859,0.1859,0.1859,0.1859,0,0.2036,0.2027,0.2012,0.1994,0.1981,0.1983,0.1969,0.1958,0.194,0.1928,0.1913,0.1892,0.1874,0.1863,0.1845,0.1835,0.1834,0.183,0.1831,0.1829,0.1853,0.1859,0.1831,0.1831,0.1831,0.1831,0.1831,0.1831,0.2017,0.1996,0.1992,0.1965,0.1957,0.1938,0.193,0.1919,0.1909,0.1885,0.1871,0.1864,0.1852,0.1833,0.1817,0.1814,0.1808,0.1804,0.1801,0.1824,0.1827,0.183,0.1835,0.1802,0.1802,0.1778,0.1778,0.1777]}]]